This is the latest recevied weather packets stored in our database for station/object N3FYI-5. If no packets are shown the sender has not sent any weather packets the latest 10 day(s).
| Time | Temp. | Humidity | Pressure | Rain* | Wind** | Luminosity | Snow |
|---|---|---|---|---|---|---|---|
| 1777824237 | 10° C | 41% | 1024 hPa | 0 mm | - | - | - |
| 1777823757 | 9.44° C | 44% | 1024 hPa | 0 mm | - | - | - |
| 1777823288 | 9.44° C | 44% | 1024.2 hPa | 0 mm | - | - | - |
| 1777822798 | 8.89° C | 47% | 1024.3 hPa | 0 mm | - | - | - |
| 1777822318 | 8.33° C | 48% | 1024.4 hPa | 0 mm | - | - | - |
| 1777821838 | 8.33° C | 47% | 1024.4 hPa | 0 mm | - | - | - |
| 1777821358 | 7.78° C | 48% | 1024.5 hPa | 0 mm | - | - | - |
| 1777820878 | 7.78° C | 48% | 1024.4 hPa | 0 mm | - | - | - |
| 1777820401 | 7.78° C | 51% | 1024.5 hPa | 0 mm | - | - | - |
| 1777819919 | 7.22° C | 53% | 1024.6 hPa | 0 mm | - | - | - |
| 1777819441 | 6.67° C | 53% | 1024.7 hPa | 0 mm | - | - | - |
| 1777818957 | 6.67° C | 56% | 1024.6 hPa | 0 mm | - | - | - |
| 1777818477 | 6.67° C | 54% | 1024.8 hPa | 0 mm | - | - | - |
| 1777817997 | 6.11° C | 55% | 1024.9 hPa | 0 mm | - | - | - |
| 1777817520 | 6.11° C | 55% | 1024.9 hPa | 0 mm | - | - | - |
| 1777817037 | 5° C | 56% | 1024.8 hPa | 0 mm | - | - | - |
| 1777816558 | 5° C | 56% | 1025 hPa | 0 mm | - | - | - |
| 1777816078 | 5° C | 56% | 1024.9 hPa | 0 mm | - | - | - |
| 1777815599 | 5° C | 54% | 1024.8 hPa | 0 mm | - | - | - |
| 1777814833 | 5° C | 58% | 1024.9 hPa | 0 mm | - | - | - |
| 1777814353 | 4.44° C | 61% | 1024.8 hPa | 0 mm | - | - | - |
| 1777813873 | 3.89° C | 64% | 1024.8 hPa | 0 mm | - | - | - |
| 1777813394 | 3.89° C | 68% | 1024.9 hPa | 0 mm | - | - | - |
| 1777812913 | 3.33° C | 69% | 1024.8 hPa | 0 mm | - | - | - |
| 1777812432 | 2.78° C | 73% | 1025 hPa | 0 mm | - | - | - |
* Rain latest hour (hover to see other rain measurements)
** Current wind speed in m/s (hover to see current wind gust speed)